FIN46J LPFR-LEPA

Flight info

Callsign FIN46J
Flight time 1h 24m
Altitude 35000
Route TUPI2V TUPIX Y135 NAPES N747 TOSTO M445 LASPO M871 GODOX GODO4P
Aircraft A321/M-SDE3FGHIRWY/LB1

Departure

Time 2026-05-04 15:30
Airport Faro - Gago Coutinho International Airport (LPFR)

Arrival

Time 2026-05-04 16:55
Airport Palma de Mallorca Airport (LEPA)
Time Latitude Longitude Altitude Speed Heading
2026-05-04 15:03 37.01715 -7.96644 20 ft 0 kts 189°
2026-05-04 15:19 37.01718 -7.96644 47 ft 3 kts 189°
2026-05-04 15:19 37.01755 -7.96636 20 ft 3 kts 181°
2026-05-04 15:20 37.01774 -7.96635 20 ft 3 kts 170°
2026-05-04 15:20 37.01792 -7.96641 20 ft 3 kts 144°
2026-05-04 15:20 37.01802 -7.96658 23 ft 2 kts 96°
2026-05-04 15:20 37.01802 -7.96660 22 ft 0 kts 96°
2026-05-04 15:23 37.01802 -7.96648 20 ft 3 kts 94°
2026-05-04 15:24 37.01795 -7.96587 20 ft 5 kts 98°
2026-05-04 15:24 37.01747 -7.96519 20 ft 6 kts 184°
2026-05-04 15:25 37.01699 -7.96529 20 ft 7 kts 190°
2026-05-04 15:25 37.01647 -7.96537 20 ft 8 kts 174°
2026-05-04 15:25 37.01614 -7.96486 20 ft 8 kts 102°
2026-05-04 15:26 37.01589 -7.96324 20 ft 11 kts 101°
2026-05-04 15:26 37.01575 -7.96229 20 ft 11 kts 100°
2026-05-04 15:26 37.01559 -7.96106 20 ft 5 kts 99°
2026-05-04 15:27 37.01551 -7.96054 20 ft 7 kts 100°
2026-05-04 15:27 37.01532 -7.95907 20 ft 10 kts 100°
2026-05-04 15:28 37.01450 -7.95840 20 ft 0 kts 188°
2026-05-04 15:28 37.01430 -7.95843 22 ft 6 kts 188°
2026-05-04 15:29 37.01383 -7.95852 20 ft 7 kts 189°
2026-05-04 15:30 37.01562 -7.97428 21 ft 144 kts 280°
2026-05-04 15:30 37.02177 -8.01513 1488 ft 166 kts 282°
2026-05-04 15:31 37.02608 -8.04535 2205 ft 191 kts 282°
2026-05-04 15:31 37.02852 -8.06220 2571 ft 201 kts 283°
2026-05-04 15:32 37.00810 -8.10178 4142 ft 235 kts 180°
2026-05-04 15:32 36.97979 -8.08037 4865 ft 266 kts 118°
2026-05-04 15:33 36.97932 -8.03463 5870 ft 276 kts 70°
2026-05-04 15:34 36.99061 -7.96245 7826 ft 291 kts 79°
2026-05-04 15:34 36.99390 -7.93719 8420 ft 298 kts 79°
2026-05-04 15:34 37.00108 -7.88545 9700 ft 307 kts 78°
2026-05-04 15:35 37.00917 -7.83116 10407 ft 336 kts 78°
2026-05-04 15:35 37.01368 -7.80155 10532 ft 357 kts 78°
2026-05-04 15:35 37.01845 -7.77020 10657 ft 377 kts 78°
2026-05-04 15:36 37.02860 -7.70323 11285 ft 400 kts 78°
2026-05-04 15:36 37.03370 -7.66937 11820 ft 404 kts 78°
2026-05-04 15:36 37.03891 -7.63454 12364 ft 409 kts 78°
2026-05-04 15:37 37.04415 -7.59937 12905 ft 414 kts 78°
2026-05-04 15:37 37.04944 -7.56376 13412 ft 419 kts 78°
2026-05-04 15:37 37.05480 -7.52770 13944 ft 424 kts 78°
2026-05-04 15:37 37.06022 -7.49122 14453 ft 428 kts 78°
2026-05-04 15:38 37.06567 -7.45448 14974 ft 431 kts 78°
2026-05-04 15:38 37.07117 -7.41744 15501 ft 435 kts 78°
2026-05-04 15:38 37.07799 -7.38101 16011 ft 437 kts 71°
2026-05-04 15:38 37.08896 -7.34549 16538 ft 439 kts 65°
2026-05-04 15:39 37.10106 -7.31017 17068 ft 442 kts 65°
2026-05-04 15:39 37.11322 -7.27464 17573 ft 446 kts 65°
2026-05-04 15:39 37.13781 -7.20269 18535 ft 452 kts 65°
2026-05-04 15:40 37.15020 -7.16633 18937 ft 455 kts 65°
2026-05-04 15:40 37.16263 -7.12969 19328 ft 459 kts 65°
2026-05-04 15:40 37.17510 -7.09277 19732 ft 462 kts 65°
2026-05-04 15:40 37.18764 -7.05558 20139 ft 465 kts 65°
2026-05-04 15:41 37.19851 -7.01718 20526 ft 470 kts 73°
2026-05-04 15:41 37.20599 -6.97774 20903 ft 473 kts 76°
2026-05-04 15:41 37.21348 -6.93744 21283 ft 476 kts 76°
2026-05-04 15:41 37.22106 -6.89691 21667 ft 479 kts 75°
2026-05-04 15:42 37.22871 -6.85614 22047 ft 482 kts 75°
2026-05-04 15:42 37.23642 -6.81503 22409 ft 485 kts 75°
2026-05-04 15:42 37.24416 -6.77370 22757 ft 488 kts 75°
2026-05-04 15:42 37.25196 -6.73209 23113 ft 491 kts 75°
2026-05-04 15:43 37.25968 -6.69079 23467 ft 494 kts 75°
2026-05-04 15:43 37.26751 -6.64866 23782 ft 497 kts 76°
2026-05-04 15:43 37.27533 -6.60625 23979 ft 499 kts 76°
2026-05-04 15:43 37.28310 -6.56385 24020 ft 499 kts 76°
2026-05-04 15:44 37.29085 -6.52142 24020 ft 499 kts 76°
2026-05-04 15:44 37.29862 -6.47901 24034 ft 499 kts 76°
2026-05-04 15:44 37.30644 -6.43636 24324 ft 502 kts 76°
2026-05-04 15:44 37.31427 -6.39353 24608 ft 505 kts 76°
2026-05-04 15:45 37.32212 -6.35049 24886 ft 507 kts 76°
2026-05-04 15:45 37.32997 -6.30723 25180 ft 509 kts 76°
2026-05-04 15:45 37.33776 -6.26433 25463 ft 511 kts 76°
2026-05-04 15:45 37.34568 -6.22068 25747 ft 514 kts 76°
2026-05-04 15:46 37.35362 -6.17682 26039 ft 516 kts 76°
2026-05-04 15:46 37.36161 -6.13274 26341 ft 518 kts 76°
2026-05-04 15:46 37.36963 -6.08843 26619 ft 520 kts 76°
2026-05-04 15:46 37.37763 -6.04399 26924 ft 522 kts 76°
2026-05-04 15:47 37.38558 -5.99952 27301 ft 521 kts 76°
2026-05-04 15:47 37.39347 -5.95506 27674 ft 521 kts 77°
2026-05-04 15:47 37.40122 -5.91122 28057 ft 521 kts 77°
2026-05-04 15:47 37.40908 -5.86673 28442 ft 520 kts 77°
2026-05-04 15:48 37.41695 -5.82235 28828 ft 520 kts 77°
2026-05-04 15:48 37.42519 -5.77811 29205 ft 519 kts 73°
2026-05-04 15:48 37.45163 -5.69394 29960 ft 517 kts 64°
2026-05-04 15:49 37.46623 -5.65251 30241 ft 519 kts 64°
2026-05-04 15:49 37.48083 -5.61094 30496 ft 520 kts 64°
2026-05-04 15:49 37.49538 -5.56929 30778 ft 520 kts 64°
2026-05-04 15:49 37.50970 -5.52816 31082 ft 520 kts 64°
2026-05-04 15:50 37.52422 -5.48641 31379 ft 520 kts 64°
2026-05-04 15:50 37.53871 -5.44471 31666 ft 520 kts 64°
2026-05-04 15:50 37.55317 -5.40298 31958 ft 520 kts 64°
2026-05-04 15:50 37.56765 -5.36119 32249 ft 520 kts 64°
2026-05-04 15:51 37.58211 -5.31945 32534 ft 520 kts 65°
2026-05-04 15:51 37.59658 -5.27763 32772 ft 521 kts 65°
2026-05-04 15:51 37.61107 -5.23575 33101 ft 521 kts 65°
2026-05-04 15:51 37.62555 -5.19389 33419 ft 520 kts 65°
2026-05-04 15:52 37.63978 -5.15269 33711 ft 519 kts 65°
2026-05-04 15:52 37.65418 -5.11094 33980 ft 519 kts 65°
2026-05-04 15:52 37.66859 -5.06919 34210 ft 519 kts 65°
2026-05-04 15:52 37.68299 -5.02741 34424 ft 519 kts 65°
2026-05-04 15:53 37.69738 -4.98551 34642 ft 520 kts 65°
2026-05-04 15:53 37.71172 -4.94365 34854 ft 520 kts 65°
2026-05-04 15:53 37.72608 -4.90164 34956 ft 523 kts 65°
2026-05-04 15:53 37.74052 -4.85934 34977 ft 524 kts 65°
2026-05-04 15:54 37.76916 -4.77521 34974 ft 525 kts 65°
2026-05-04 15:54 37.79795 -4.69043 34976 ft 525 kts 65°
2026-05-04 15:55 37.82671 -4.60552 34972 ft 525 kts 65°
2026-05-04 15:55 37.85541 -4.52055 34962 ft 526 kts 65°
2026-05-04 15:56 37.88407 -4.43522 34998 ft 527 kts 66°
2026-05-04 15:56 37.91243 -4.35046 34986 ft 526 kts 66°
2026-05-04 15:57 37.94095 -4.26524 34971 ft 525 kts 66°
2026-05-04 15:57 37.96944 -4.17996 34971 ft 525 kts 66°
2026-05-04 15:58 37.99782 -4.09468 34974 ft 525 kts 66°
2026-05-04 15:58 38.02594 -4.00985 34978 ft 525 kts 66°
2026-05-04 15:59 38.05409 -3.92444 34971 ft 525 kts 66°
2026-05-04 15:59 38.08227 -3.83897 34970 ft 525 kts 66°
2026-05-04 16:00 38.11048 -3.75349 34952 ft 525 kts 66°
2026-05-04 16:00 38.13866 -3.66778 34984 ft 527 kts 66°
2026-05-04 16:01 38.16032 -3.57974 34980 ft 526 kts 79°
2026-05-04 16:01 38.17544 -3.48878 34977 ft 527 kts 78°
2026-05-04 16:02 38.19082 -3.39767 34967 ft 527 kts 79°
2026-05-04 16:03 38.21378 -3.26079 34970 ft 528 kts 79°
2026-05-04 16:03 38.22879 -3.17002 34976 ft 528 kts 79°
2026-05-04 16:04 38.24381 -3.07854 34975 ft 529 kts 79°
2026-05-04 16:04 38.26637 -2.94110 34969 ft 529 kts 79°
2026-05-04 16:05 38.28138 -2.84941 34979 ft 529 kts 79°
2026-05-04 16:06 38.30349 -2.71227 34988 ft 529 kts 80°
2026-05-04 16:07 38.33299 -2.52853 34989 ft 530 kts 80°
2026-05-04 16:08 38.36847 -2.34724 34992 ft 531 kts 65°
2026-05-04 16:08 38.42647 -2.22754 34975 ft 530 kts 54°
2026-05-04 16:09 38.46740 -2.14912 34969 ft 531 kts 55°
2026-05-04 16:10 38.54887 -1.99213 34966 ft 532 kts 55°
2026-05-04 16:11 38.63064 -1.83401 34955 ft 534 kts 55°
2026-05-04 16:12 38.75255 -1.59668 34970 ft 532 kts 55°
2026-05-04 16:13 38.83360 -1.43796 34958 ft 532 kts 56°
2026-05-04 16:14 38.91402 -1.27987 34964 ft 528 kts 56°
2026-05-04 16:16 39.01397 -1.08215 34942 ft 528 kts 56°
2026-05-04 16:17 39.11357 -0.88387 34934 ft 529 kts 56°
2026-05-04 16:18 39.19326 -0.72429 34918 ft 529 kts 57°
2026-05-04 16:19 39.27970 -0.51755 34924 ft 525 kts 78°
2026-05-04 16:20 39.29141 -0.37813 34920 ft 521 kts 89°
2026-05-04 16:20 39.29637 -0.28487 34917 ft 521 kts 89°
2026-05-04 16:21 39.30363 -0.14599 34590 ft 514 kts 90°
2026-05-04 16:22 39.30834 -0.05413 34128 ft 512 kts 90°
2026-05-04 16:22 39.31512 0.08339 32738 ft 511 kts 90°
2026-05-04 16:23 39.32172 0.22067 31977 ft 513 kts 90°
2026-05-04 16:24 39.33045 0.40419 29554 ft 509 kts 90°
2026-05-04 16:25 39.33455 0.49437 28538 ft 498 kts 90°
2026-05-04 16:26 39.34239 0.66973 26480 ft 480 kts 90°
2026-05-04 16:26 39.34800 0.79679 25001 ft 468 kts 91°
2026-05-04 16:27 39.35158 0.88006 24074 ft 461 kts 90°
2026-05-04 16:28 39.35664 1.00275 22714 ft 449 kts 90°
2026-05-04 16:28 39.36146 1.12171 21413 ft 439 kts 90°
2026-05-04 16:29 39.36755 1.27682 19613 ft 427 kts 90°
2026-05-04 16:30 39.37192 1.39082 18191 ft 421 kts 89°
2026-05-04 16:31 39.37990 1.46480 17553 ft 408 kts 81°
2026-05-04 16:31 39.39845 1.57078 16753 ft 400 kts 77°
2026-05-04 16:32 39.41871 1.67407 15999 ft 393 kts 77°
2026-05-04 16:33 39.43119 1.74122 15493 ft 375 kts 78°
2026-05-04 16:33 39.44298 1.80581 15003 ft 363 kts 78°
2026-05-04 16:34 39.45448 1.86894 14538 ft 359 kts 78°
2026-05-04 16:34 39.46012 1.89994 14348 ft 358 kts 78°
2026-05-04 16:35 39.47707 1.99298 13669 ft 351 kts 78°
2026-05-04 16:35 39.49360 2.08436 12957 ft 340 kts 78°
2026-05-04 16:36 39.49891 2.11388 12729 ft 335 kts 78°
2026-05-04 16:36 39.50947 2.17226 12277 ft 332 kts 78°
2026-05-04 16:37 39.51982 2.22980 11827 ft 329 kts 78°
2026-05-04 16:37 39.52496 2.25860 11604 ft 328 kts 78°
2026-05-04 16:37 39.53513 2.31575 11163 ft 321 kts 79°
2026-05-04 16:38 39.54565 2.37107 10734 ft 315 kts 71°
2026-05-04 16:39 39.57134 2.44869 9942 ft 311 kts 67°
2026-05-04 16:39 39.58882 2.49938 9315 ft 309 kts 67°
2026-05-04 16:40 39.60623 2.55028 8576 ft 309 kts 67°
2026-05-04 16:40 39.62361 2.60113 7826 ft 307 kts 67°
2026-05-04 16:41 39.64067 2.65063 7093 ft 294 kts 67°
2026-05-04 16:41 39.66517 2.72106 5974 ft 278 kts 67°
2026-05-04 16:42 39.68839 2.78791 5007 ft 265 kts 67°
2026-05-04 16:43 39.70338 2.83145 5012 ft 264 kts 67°
2026-05-04 16:43 39.71834 2.87491 4980 ft 264 kts 67°
2026-05-04 16:43 39.72584 2.89666 4975 ft 264 kts 67°
2026-05-04 16:44 39.75596 2.98341 4966 ft 263 kts 67°
2026-05-04 16:45 39.77089 3.02670 4972 ft 263 kts 68°
2026-05-04 16:46 39.78910 3.09242 4959 ft 255 kts 99°
2026-05-04 16:46 39.77142 3.12820 4967 ft 234 kts 156°
2026-05-04 16:47 39.74108 3.13304 4964 ft 219 kts 201°
2026-05-04 16:47 39.71837 3.10886 4975 ft 215 kts 238°
2026-05-04 16:48 39.69540 3.05956 4448 ft 211 kts 239°
2026-05-04 16:48 39.68781 3.04334 4085 ft 209 kts 238°
2026-05-04 16:49 39.67346 3.01268 3685 ft 191 kts 238°
2026-05-04 16:49 39.65977 2.98349 3084 ft 189 kts 238°
2026-05-04 16:50 39.64693 2.95611 2972 ft 171 kts 237°
2026-05-04 16:50 39.63483 2.93034 2894 ft 167 kts 238°
2026-05-04 16:51 39.62272 2.90457 2519 ft 168 kts 237°
2026-05-04 16:51 39.61664 2.89164 2323 ft 168 kts 238°
2026-05-04 16:51 39.60506 2.86702 1898 ft 148 kts 236°
2026-05-04 16:52 39.59462 2.84484 1510 ft 143 kts 237°
2026-05-04 16:52 39.58942 2.83381 1324 ft 143 kts 236°
2026-05-04 16:53 39.57933 2.81241 975 ft 137 kts 237°
2026-05-04 16:53 39.56438 2.78081 374 ft 137 kts 237°
2026-05-04 16:54 39.55937 2.77022 234 ft 137 kts 237°
2026-05-04 16:55 39.54805 2.74332 38 ft 29 kts 268°
2026-05-04 16:55 39.54741 2.74025 37 ft 14 kts 239°
2026-05-04 16:56 39.54798 2.73967 38 ft 9 kts 43°
2026-05-04 16:56 39.54978 2.73896 38 ft 7 kts 324°
2026-05-04 16:57 39.54980 2.73841 37 ft 6 kts 242°
2026-05-04 16:57 39.54947 2.73770 38 ft 0 kts 238°